When you browse on this site, cookies collect data to enhance your experience and personalize the content and advertising you see.
Visit our Privacy Policy to learn more. By continuing to use the site, you agree to this use of cookies and data.
  • In Lithuania
  • List of Countries
  • For 7 days
  • Water Temperature
  • Satellite Maps
  • Weather Map
  • Weather Widgets
  • user-avatar
    Login

    Hourly Weather La Massana

    Today, 23 February, Saturday

    Time Temperature Precipitation Wind Pressure Humidity
    00:00 +2°C° 0 mm 2 mps 614 mmHg 43%
    01:00 +2°C° 0 mm 2 mps 614 mmHg 44%
    02:00 +2°C° 0 mm 2 mps 614 mmHg 46%
    03:00 +3°C° 0 mm 2 mps 614 mmHg 48%
    04:00 +3°C° 0 mm 2 mps 614 mmHg 49%
    05:00 +3°C° 0 mm 2 mps 614 mmHg 51%
    06:00 +3°C° 0 mm 2 mps 614 mmHg 53%
    07:00 +5°C° 0 mm 2 mps 615 mmHg 51%
    08:00 +8°C° 0 mm 1 mps 616 mmHg 50%
    09:00 +9°C° 0 mm 1 mps 617 mmHg 49%
    10:00 +10°C° 0 mm 2 mps 618 mmHg 46%
    11:00 +12°C° 0 mm 2 mps 618 mmHg 43%
    12:00 +13°C° 0 mm 2 mps 619 mmHg 40%
    13:00 +13°C° 0 mm 2 mps 619 mmHg 43%
    14:00 +12°C° 0 mm 2 mps 618 mmHg 46%
    15:00 +10°C° 0 mm 2 mps 618 mmHg 48%
    16:00 +8°C° 0 mm 2 mps 617 mmHg 58%
    17:00 +5°C° 0 mm 2 mps 616 mmHg 67%
    18:00 +4°C° 0 mm 1 mps 615 mmHg 77%
    19:00 +3°C° 0 mm 1 mps 615 mmHg 75%
    20:00 +3°C° 0 mm 1 mps 615 mmHg 73%
    21:00 +2°C° 0 mm 1 mps 616 mmHg 72%
    22:00 +2°C° 0 mm 1 mps 616 mmHg 70%
    23:00 +2°C° 0 mm 1 mps 616 mmHg 67%

    Tomorrow, 24 February, Sunday

    Time Temperature Precipitation Wind Pressure Humidity
    00:00 +2°C° 0 mm 1 mps 616 mmHg 65%
    01:00 +2°C° 0 mm 1 mps 616 mmHg 66%
    02:00 +1°C° 0 mm 1 mps 616 mmHg 68%
    03:00 +1°C° 0 mm 1 mps 616 mmHg 70%
    04:00 +1°C° 0 mm 1 mps 616 mmHg 71%
    05:00 +1°C° 0 mm 1 mps 616 mmHg 73%
    06:00 0°C° 0 mm 1 mps 616 mmHg 74%
    07:00 +2°C° 0 mm 1 mps 617 mmHg 67%
    08:00 +4°C° 0 mm 1 mps 618 mmHg 60%
    09:00 +6°C° 0 mm 1 mps 619 mmHg 52%
    10:00 +8°C° 0 mm 1 mps 620 mmHg 48%
    11:00 +9°C° 0 mm 1 mps 620 mmHg 44%
    12:00 +11°C° 0 mm 1 mps 621 mmHg 40%
    13:00 +11°C° 0 mm 1 mps 621 mmHg 42%
    14:00 +11°C° 0 mm 1 mps 621 mmHg 45%
    15:00 +10°C° 0 mm 1 mps 620 mmHg 47%
    16:00 +8°C° 0 mm 1 mps 619 mmHg 58%
    17:00 +6°C° 0 mm 1 mps 618 mmHg 69%
    18:00 +3°C° 0 mm 0 mps 617 mmHg 80%
    19:00 +3°C° 0 mm 1 mps 617 mmHg 80%
    20:00 +3°C° 0 mm 1 mps 617 mmHg 80%
    21:00 +3°C° 0 mm 1 mps 617 mmHg 80%
    22:00 +3°C° 0 mm 1 mps 617 mmHg 77%
    23:00 +3°C° 0 mm 1 mps 617 mmHg 75%

    Day after tomorrow, 25 February, Monday

    Time Temperature Precipitation Wind Pressure Humidity
    00:00 +3°C° 0 mm 1 mps 617 mmHg 73%
    01:00 +3°C° 0 mm 1 mps 617 mmHg 69%
    02:00 +2°C° 0 mm 1 mps 617 mmHg 66%
    03:00 +2°C° 0 mm 1 mps 617 mmHg 63%
    04:00 +2°C° 0 mm 1 mps 617 mmHg 59%
    05:00 +2°C° 0 mm 1 mps 616 mmHg 55%
    06:00 +2°C° 0 mm 1 mps 616 mmHg 52%
    07:00 +4°C° 0 mm 1 mps 617 mmHg 46%
    08:00 +5°C° 0 mm 0 mps 618 mmHg 41%
    09:00 +7°C° 0 mm 0 mps 620 mmHg 36%
    10:00 +8°C° 0 mm 0 mps 620 mmHg 36%
    11:00 +10°C° 0 mm 1 mps 620 mmHg 35%
    12:00 +11°C° 0 mm 1 mps 620 mmHg 34%
    13:00 +11°C° 0 mm 1 mps 620 mmHg 37%
    14:00 +11°C° 0 mm 1 mps 619 mmHg 41%
    15:00 +10°C° 0 mm 1 mps 619 mmHg 44%
    16:00 +8°C° 0 mm 1 mps 618 mmHg 57%
    17:00 +6°C° 0 mm 1 mps 617 mmHg 69%
    18:00 +2°C° 0 mm 0 mps 616 mmHg 81%
    19:00 +2°C° 0 mm 0 mps 616 mmHg 83%
    20:00 +3°C° 0 mm 1 mps 616 mmHg 85%
    21:00 +2°C° 0 mm 1 mps 616 mmHg 87%
    22:00 +2°C° 0 mm 1 mps 616 mmHg 87%
    23:00 +1°C° 0 mm 2 mps 616 mmHg 87%

    26 February, Tuesday

    Time Temperature Precipitation Wind Pressure Humidity
    00:00 +1°C° 0 mm 2 mps 616 mmHg 87%
    01:00 +1°C° 0 mm 2 mps 616 mmHg 80%
    02:00 +1°C° 0 mm 2 mps 616 mmHg 73%
    03:00 +1°C° 0 mm 2 mps 616 mmHg 66%
    04:00 -1°C° 0 mm 2 mps 616 mmHg 62%
    05:00 -1°C° 0 mm 2 mps 616 mmHg 57%
    06:00 +1°C° 0 mm 1 mps 616 mmHg 53%
    07:00 +2°C° 0 mm 2 mps 617 mmHg 48%
    08:00 +4°C° 0 mm 2 mps 618 mmHg 44%
    09:00 +6°C° 0 mm 2 mps 619 mmHg 39%
    10:00 +7°C° 0 mm 2 mps 619 mmHg 37%
    11:00 +9°C° 0 mm 2 mps 620 mmHg 34%
    12:00 +11°C° 0 mm 1 mps 620 mmHg 31%
    13:00 +11°C° 0 mm 1 mps 620 mmHg 32%
    14:00 +11°C° 0 mm 1 mps 620 mmHg 33%
    15:00 +11°C° 0 mm 1 mps 619 mmHg 34%
    16:00 +8°C° 0 mm 1 mps 618 mmHg 41%
    17:00 +6°C° 0 mm 1 mps 617 mmHg 49%
    18:00 +4°C° 0 mm 1 mps 616 mmHg 57%
    19:00 +3°C° 0 mm 1 mps 616 mmHg 58%
    20:00 +3°C° 0 mm 1 mps 616 mmHg 60%
    21:00 +2°C° 0 mm 1 mps 616 mmHg 62%
    22:00 +2°C° 0 mm 1 mps 616 mmHg 60%
    23:00 +2°C° 0 mm 1 mps 616 mmHg 59%

    27 February, Wednesday

    Time Temperature Precipitation Wind Pressure Humidity
    00:00 +2°C° 0 mm 1 mps 616 mmHg 57%
    01:00 +2°C° 0 mm 1 mps 615 mmHg 56%
    02:00 +2°C° 0 mm 1 mps 615 mmHg 54%
    03:00 +2°C° 0 mm 1 mps 615 mmHg 53%
    04:00 +2°C° 0 mm 1 mps 615 mmHg 51%
    05:00 +2°C° 0 mm 1 mps 615 mmHg 48%
    06:00 +2°C° 0 mm 1 mps 615 mmHg 46%
    07:00 +4°C° 0 mm 1 mps 616 mmHg 41%
    08:00 +7°C° 0 mm 1 mps 617 mmHg 35%
    09:00 +9°C° 0 mm 1 mps 618 mmHg 30%
    10:00 +10°C° 0 mm 1 mps 618 mmHg 27%
    11:00 +12°C° 0 mm 1 mps 619 mmHg 25%
    12:00 +13°C° 0 mm 1 mps 619 mmHg 23%
    13:00 +13°C° 0 mm 1 mps 618 mmHg 25%
    14:00 +12°C° 0 mm 1 mps 618 mmHg 27%
    15:00 +12°C° 0 mm 1 mps 617 mmHg 29%
    16:00 +10°C° 0 mm 1 mps 616 mmHg 37%
    17:00 +6°C° 0 mm 0 mps 615 mmHg 45%
    18:00 +4°C° 0 mm 0 mps 614 mmHg 53%
    19:00 +3°C° 0 mm 0 mps 614 mmHg 53%
    20:00 +3°C° 0 mm 0 mps 614 mmHg 53%
    21:00 +4°C° 0 mm 1 mps 614 mmHg 53%
    22:00 +4°C° 0 mm 1 mps 614 mmHg 52%
    23:00 +4°C° 0 mm 1 mps 614 mmHg 52%

    28 February, Thursday

    Time Temperature Precipitation Wind Pressure Humidity
    00:00 +3°C° 0 mm 1 mps 614 mmHg 51%
    01:00 +3°C° 0 mm 1 mps 614 mmHg 49%
    02:00 +3°C° 0 mm 1 mps 613 mmHg 47%
    03:00 +3°C° 0 mm 1 mps 613 mmHg 46%
    04:00 +3°C° 0 mm 1 mps 613 mmHg 43%
    05:00 +3°C° 0 mm 1 mps 613 mmHg 41%
    06:00 +3°C° 0 mm 1 mps 613 mmHg 39%
    07:00 +5°C° 0 mm 1 mps 614 mmHg 34%
    08:00 +8°C° 0 mm 1 mps 615 mmHg 30%
    09:00 +9°C° 0 mm 0 mps 616 mmHg 26%
    10:00 +11°C° 0 mm 1 mps 617 mmHg 25%
    11:00 +12°C° 0 mm 1 mps 617 mmHg 25%
    12:00 +13°C° 0 mm 1 mps 617 mmHg 24%
    13:00 +13°C° 0 mm 1 mps 616 mmHg 27%
    14:00 +12°C° 0 mm 1 mps 616 mmHg 29%
    15:00 +12°C° 0 mm 1 mps 615 mmHg 31%
    16:00 +10°C° 0 mm 1 mps 614 mmHg 39%
    17:00 +6°C° 0 mm 0 mps 613 mmHg 47%
    18:00 +4°C° 0 mm 0 mps 612 mmHg 56%
    19:00 +3°C° 0 mm 0 mps 612 mmHg 56%
    20:00 +3°C° 0 mm 0 mps 612 mmHg 55%
    21:00 +4°C° 0 mm 1 mps 611 mmHg 55%
    22:00 +3°C° 0 mm 1 mps 611 mmHg 53%
    23:00 +3°C° 0 mm 1 mps 611 mmHg 52%
    Show more